E24QND-2 Weather Reports


time (UTC)temp
F
wind
direction
speed
knots
gust
knots
rain 1hr
in
rain 24hr
in
rain mn
in
humidity
%
barometer
mb
20260508094313 87 0 0.0 0.0 0.00 0.00 0.00 99
20260508092249 87 0 0.0 0.0 0.00 0.00 0.00 99
20260508090224 87 0 0.0 0.0 0.00 0.00 0.00 99
20260508084200 86 0 0.0 0.0 0.00 0.00 0.00 99
20260508082135 86 0 0.0 0.0 0.00 0.00 0.00 99
20260508080111 86 0 0.0 0.0 0.00 0.00 0.00 99
20260508074046 86 0 0.0 0.0 0.00 0.00 0.00 99
20260508072021 86 0 0.0 0.0 0.00 0.00 0.00 99
20260508065957 86 0 0.0 0.0 0.00 0.00 0.00 99
20260508063933 85 0 0.0 0.0 0.00 0.00 0.00 99
20260508061908 85 0 0.0 0.0 0.00 0.00 0.00 99
20260508055843 84 0 0.0 0.0 0.00 0.00 0.00 99
20260508053818 84 0 0.0 0.0 0.00 0.00 0.00 99
20260508051754 81 0 0.0 0.0 0.00 0.00 0.00 1
20260508045729 80 0 0.0 0.0 0.00 0.00 0.00 1
20260508043705 79 0 0.0 0.0 0.00 0.00 0.00 1
20260508041640 79 0 0.0 0.0 0.00 0.00 0.00 1
20260508035616 78 0 0.0 0.0 0.00 0.00 0.00 1
20260508033551 78 0 0.0 0.0 0.00 0.00 0.00 1
20260508031527 78 0 0.0 0.0 0.00 0.00 0.00 1
20260508025502 78 0 0.0 0.0 0.00 0.00 0.00 1
20260508023438 77 0 0.0 0.0 0.00 0.00 0.00 99
20260508021413 77 0 0.0 0.0 0.00 0.00 0.00 1
20260508015349 76 0 0.0 0.0 0.00 0.00 0.00 1
20260508013324 78 0 0.0 0.0 0.00 0.00 0.00 1
20260508011259 79 0 0.0 0.0 0.00 0.00 0.00 1
20260508005235 80 0 0.0 0.0 0.00 0.00 0.00 1
20260508003211 81 0 0.0 0.0 0.00 0.00 0.00 99
20260508001146 83 0 0.0 0.0 0.00 0.00 0.00 35
20260507235121 82 0 0.0 0.0 0.00 0.00 0.00 34
20260507233057 84 0 0.0 0.0 0.00 0.00 0.00 23
20260507231032 83 0 0.0 0.0 0.00 0.00 0.00 21
20260507225008 83 0 0.0 0.0 0.00 0.00 0.00 20
20260507222943 82 0 0.0 0.0 0.00 0.00 0.00 23
20260507220918 83 0 0.0 0.0 0.00 0.00 0.00 3
20260507214854 83 0 0.0 0.0 0.00 0.00 0.00 1
20260507212829 83 0 0.0 0.0 0.00 0.00 0.00 1
20260507210805 84 0 0.0 0.0 0.00 0.00 0.00 1
20260507204740 84 0 0.0 0.0 0.00 0.00 0.00 1
20260507202716 84 0 0.0 0.0 0.00 0.00 0.00 1
20260507200651 85 0 0.0 0.0 0.00 0.00 0.00 1
20260507194627 86 0 0.0 0.0 0.00 0.00 0.00 1
20260507192602 86 0 0.0 0.0 0.00 0.00 0.00 1
20260507190537 86 0 0.0 0.0 0.00 0.00 0.00 1
20260507184513 87 0 0.0 0.0 0.00 0.00 0.00 1
20260507182448 86 0 0.0 0.0 0.00 0.00 0.00 1
20260507180424 86 0 0.0 0.0 0.00 0.00 0.00 1
20260507174359 87 0 0.0 0.0 0.00 0.00 0.00 1
20260507172335 86 0 0.0 0.0 0.00 0.00 0.00 1
20260507170310 87 0 0.0 0.0 0.00 0.00 0.00 1
20260507164246 86 0 0.0 0.0 0.00 0.00 0.00 1
20260507162221 85 0 0.0 0.0 0.00 0.00 0.00 1
20260507160157 85 0 0.0 0.0 0.00 0.00 0.00 1
20260507154132 86 0 0.0 0.0 0.00 0.00 0.00 1
20260507152108 87 0 0.0 0.0 0.00 0.00 0.00 1
20260507150043 87 0 0.0 0.0 0.00 0.00 0.00 1
20260507144018 88 0 0.0 0.0 0.00 0.00 0.00 1
20260507141954 89 0 0.0 0.0 0.00 0.00 0.00 1
20260507135929 89 0 0.0 0.0 0.00 0.00 0.00 1
20260507133905 89 0 0.0 0.0 0.00 0.00 0.00 1
20260507131840 89 0 0.0 0.0 0.00 0.00 0.00 1
20260507125816 89 0 0.0 0.0 0.00 0.00 0.00 1
20260507123751 90 0 0.0 0.0 0.00 0.00 0.00 1
20260507121726 91 0 0.0 0.0 0.00 0.00 0.00 1
20260507115702 93 0 0.0 0.0 0.00 0.00 0.00 1
20260507113637 93 0 0.0 0.0 0.00 0.00 0.00 1
20260507111613 96 0 0.0 0.0 0.00 0.00 0.00 1
20260507105548 97 0 0.0 0.0 0.00 0.00 0.00 1
20260507103524 98 0 0.0 0.0 0.00 0.00 0.00 1
20260507101459 99 0 0.0 0.0 0.00 0.00 0.00 1